Theta_e
323 323 324 324 327 324 323 322 324 325 326 327 328 330 334 339 340 347 350 351 351 353 352 351 352 350 350 350 351 351 351 351
323 324 323 323 324 324 324 324 324 325 327 328 333 332 332 335 339 341 342 348 350 352 351 350 349 350 350 350 351 352 352 351
325 325 325 322 324 324 325 324 324 323 323 328 333 337 335 334 335 338 340 342 345 349 350 350 348 349 350 351 352 352 352 352
325 325 325 325 325 325 326 328 325 325 324 325 329 331 333 333 334 337 341 343 343 344 346 347 349 348 349 350 351 352 352 352
327 325 322 326 326 325 326 326 328 325 325 326 326 327 329 330 332 335 338 341 344 343 346 348 348 348 348 349 350 351 352 353
329 327 322 324 322 326 325 328 327 328 326 326 327 327 329 331 332 333 336 343 344 344 348 347 346 347 347 348 349 350 351 352
319 318 319 321 322 322 323 326 330 327 329 327 327 329 330 330 332 332 334 337 340 344 349 351 347 347 346 347 349 349 351 352
317 316 319 320 321 321 322 323 323 324 325 326 325 329 331 331 332 335 332 335 340 346 346 348 349 347 346 347 348 350 351 351
316 317 316 321 321 322 322 322 323 325 324 324 325 326 328 331 333 335 334 335 337 344 346 347 345 346 346 347 347 350 351 352
313 314 319 320 321 321 323 324 323 323 324 325 327 329 331 331 332 334 334 334 337 333 339 344 342 342 345 346 348 350 351 352
312 315 317 317 319 332 336 328 332 330 325 325 325 327 331 329 329 332 334 334 334 331 333 339 342 343 345 348 350 351 352 353
312 312 316 320 319 322 336 330 342 343 341 331 325 328 329 333 329 328 328 330 332 330 333 336 342 342 345 348 350 353 353 353
312 313 313 316 321 339 336 332 343 344 344 346 346 330 335 333 331 333 334 331 328 329 333 338 338 339 347 347 351 351 352 354
313 312 312 315 323 323 334 341 342 344 343 343 346 345 332 342 352 357 357 352 330 334 340 345 345 343 348 352 350 351 352 354
315 313 315 318 324 333 339 342 342 342 341 339 344 347 342 351 354 356 357 354 349 348 349 348 349 349 351 351 350 352 353 355
313 312 315 315 319 320 334 339 339 338 336 338 347 346 345 343 343 347 350 351 346 345 347 348 349 351 352 354 354 352 355 356
315 315 316 318 319 319 325 336 336 336 337 339 341 341 341 342 342 340 340 340 342 344 344 343 343 342 341 341 353 359 354 353
314 314 317 322 318 323 331 336 336 336 339 339 339 336 335 340 342 341 341 341 341 341 340 340 341 341 340 340 339 346 351 353
313 313 316 320 322 328 332 334 334 336 335 338 336 337 336 337 336 336 339 339 340 343 343 343 343 343 343 343 342 343 344 347
Wind_Speed
20 12 22 14 23 22 6 1 4 14 15 11 9 19 18 19 16 18 22 24 27 26 31 33 36 38 39 39 39 39 41 39
18 20 23 15 17 10 13 12 12 8 9 13 19 19 18 19 18 19 19 21 23 23 29 34 38 39 41 40 40 40 39 39
14 19 22 10 17 10 11 9 7 6 9 8 16 19 22 22 21 20 19 20 21 22 30 36 34 33 37 40 39 38 40 40
15 12 21 24 19 21 11 11 12 9 6 4 11 8 13 16 14 13 14 17 18 20 23 28 32 33 37 38 40 43 43 41
12 11 8 18 23 21 21 10 15 12 4 9 8 3 7 10 11 12 12 14 14 14 17 20 29 33 35 39 43 41 38 39
12 7 4 4 6 19 23 16 19 21 17 7 3 5 10 10 12 10 10 11 12 13 15 18 28 31 34 37 38 38 39 39
5 8 8 10 12 12 15 21 23 23 27 20 17 16 14 11 10 9 11 10 12 14 14 15 21 28 33 34 34 37 36 38
8 9 8 14 15 14 16 19 17 23 26 17 8 16 18 21 18 16 14 13 12 12 13 16 20 28 32 34 37 39 39 42
6 6 14 16 23 19 17 15 16 23 18 13 15 16 16 19 18 17 14 13 13 14 13 13 23 29 32 37 33 37 40 39
6 4 10 8 3 7 14 14 20 23 20 16 14 16 18 18 19 19 18 17 13 14 13 21 26 26 30 29 34 34 34 31
5 12 16 19 8 2 3 13 7 15 21 20 20 19 17 17 18 20 18 16 13 15 17 18 21 26 26 27 30 30 32 32
5 8 12 3 15 8 4 14 4 5 10 12 18 16 14 14 17 17 17 15 13 14 12 14 16 20 23 27 26 29 33 39
14 11 9 11 7 4 10 1 5 7 12 13 12 13 13 5 4 6 9 12 14 9 9 8 11 19 23 23 26 34 22 21
11 12 21 9 15 18 5 6 11 13 13 15 15 19 18 8 4 4 2 3 6 8 6 3 6 16 16 17 18 16 18 23
10 10 12 11 14 16 12 13 12 14 13 13 18 17 12 8 7 6 6 9 10 11 12 8 7 10 11 9 11 13 18 21
17 23 23 24 24 20 15 16 14 12 13 13 14 10 9 9 8 7 8 9 12 13 12 10 12 12 10 7 6 10 14 18
17 20 20 24 25 19 20 14 10 8 9 4 5 9 8 8 8 7 8 9 10 11 10 11 9 9 5 3 1 5 10 14
12 14 14 19 17 17 17 14 6 6 3 6 9 7 5 5 6 7 8 10 11 12 11 8 8 8 7 6 3 4 6 7
20 19 22 19 19 12 16 10 6 8 3 6 6 6 9 5 3 6 10 11 11 10 10 10 8 9 8 7 5 3 5 8
Wind_Direction
198 180 187 182 213 214 255 137 249 226 247 260 233 220 214 222 216 210 210 211 211 209 206 205 205 205 205 204 206 205 208 210
192 188 198 193 174 176 213 225 233 220 241 235 196 209 211 220 218 219 218 213 214 211 210 207 208 203 203 205 206 206 206 209
179 200 176 182 191 200 201 220 226 251 238 205 215 212 211 214 213 215 216 215 214 211 210 211 209 206 204 202 203 204 206 208
206 188 221 203 198 197 201 194 233 270 259 222 221 219 228 235 230 231 226 220 217 216 212 212 208 206 206 204 202 205 207 207
229 220 200 219 216 210 223 232 208 213 186 225 245 232 234 241 236 231 228 228 226 216 212 210 209 207 205 204 208 208 205 206
227 219 27 237 207 217 224 228 233 231 241 208 264 250 262 271 274 257 240 214 212 219 215 212 210 206 206 209 209 206 204 204
322 309 296 270 266 252 242 242 236 246 242 239 249 275 283 283 284 286 260 235 216 217 215 213 208 207 208 208 203 204 203 203
306 301 294 277 263 255 248 249 253 258 260 267 311 250 256 266 276 270 263 252 245 226 214 212 207 205 205 205 203 197 199 206
256 315 316 268 242 242 245 238 238 248 254 252 250 240 250 253 245 251 250 241 238 228 219 217 214 207 204 206 200 199 202 208
266 275 242 257 329 277 258 252 231 248 247 242 239 243 236 232 242 249 248 250 237 238 234 220 224 218 215 201 199 202 207 208
235 228 279 289 263 221 310 256 267 272 255 244 238 253 252 243 240 243 249 252 246 251 244 236 215 213 201 198 197 198 206 206
211 242 239 257 238 255 179 267 150 339 291 277 247 242 250 242 232 240 240 242 241 235 225 223 220 209 198 202 196 203 207 209
224 241 260 272 266 122 225 275 327 301 294 292 261 256 289 329 210 247 266 244 235 219 219 224 207 197 200 203 205 214 217 219
226 241 241 260 271 240 319 311 308 306 302 289 279 280 264 267 186 142 207 137 168 156 132 110 174 195 198 197 205 203 204 204
220 224 268 285 300 318 313 293 299 292 302 288 283 268 224 179 163 143 137 103 115 129 114 95 94 158 153 157 170 182 196 202
255 260 266 274 281 277 295 290 300 294 294 282 266 234 185 155 147 129 114 108 112 105 97 86 81 94 115 143 180 193 202 204
267 263 273 268 269 271 269 265 273 302 283 250 177 169 155 140 127 123 106 101 95 88 87 80 73 71 63 51 64 203 218 220
244 250 258 261 268 270 240 248 240 266 203 107 112 99 103 107 117 121 113 103 91 90 89 86 79 70 49 34 1 310 273 246
254 265 255 278 291 257 245 218 194 224 187 104 85 100 103 99 92 101 93 93 92 84 77 76 74 59 37 20 4 356 335 309